Regional Weather Roundup
Issued by NWS Green Bay, WI

Home | Current Version | Previous Version | Text Only | Print | Product List | Glossary On
Versions: 1 2 3 4 5 6 7 8 9 10 11 12 13 14 15 16 17 18 19 20 21 22 23 24 25 26 27 28 29 30 31 32 33 34 35 36 37 38 39 40 41 42 43 44 45 46 47 48 49 50
000
ASUS43 KGRB 061711
RWRGRB

NORTH-CENTRAL AND NORTHEAST WISCONSIN REGIONAL WEATHER ROUNDUP
NATIONAL WEATHER SERVICE GREEN BAY WI
1100 AM CST TUE DEC 06 2016

WIZ005-009-010>012-018-019-061800-
NORTH CENTRAL WISCONSIN

CITY           SKY/WX    TMP DP  RH WIND       PRES   REMARKS
IRONWOOD       SNOW      31  30  96 SW13      29.57F VSB 1/2
MANITOWISH WTR LGT SNOW  30  30 100 S12       29.58F VSB 3/4
ARBOR VITAE    LGT SNOW  32  30  92 S10       29.60F
EAGLE RIVER    CLOUDY    30  30  98 S7        29.61F FOG
LAND O LAKES   CLOUDY    31  29  92 S9        29.62F FOG
RHINELANDER    LGT SNOW  31  30  96 S9        29.63F FOG
PHILLIPS       LGT SNOW  28  27  95 SW9       29.60F
ANTIGO         FOG       29  29 100 S12       29.66F VSB 1
TOMAHAWK       SNOW      30  28  93 S3        29.64F VSB 1/2
MERRILL        LGT SNOW  31  30  97 S7        29.66F VSB 3/4
$$

WIZ013-073-061800-
NORTHEAST WISCONSIN

CITY           SKY/WX    TMP DP  RH WIND       PRES   REMARKS
IRON MOUNTAIN  CLOUDY    38  31  76 S14G23    29.64F
MARINETTE      CLOUDY    39  32  76 S13G22    29.72F
OCONTO         CLOUDY    39  33  80 SE12      29.71F
$$

WIZ017-030-035>037-045-061800-
CENTRAL WISCONSIN

CITY           SKY/WX    TMP DP  RH WIND       PRES   REMARKS
MEDFORD        LGT SNOW  29  27  92 SW8       29.64S
WAUSAU         LGT SNOW  30  30 100 S9        29.66F VSB 3/4
MOSINEE        NOT AVBL
MARSHFIELD     LGT SNOW  31  29  92 SW10      29.66F FOG
WISC RAPIDS    SNOW      32  32 100 SW10      29.71F VSB 1/2
STEVENS POINT  MIX PCPN  30  30 100 S10       29.70F
WAUPACA        CLOUDY    34  32  92 S8G16     29.73F FOG
SHAWANO        CLOUDY    35  31  87 S8        29.72F
CLINTONVILLE   CLOUDY    32  30  93 SW10      29.72F FOG
WAUTOMA        CLOUDY    32  30  92 S8        29.73F FOG
$$

WIZ038-039-048-051-061800-
FOX VALLEY

CITY           SKY/WX    TMP DP  RH WIND       PRES   REMARKS
NWS GREEN BAY  CLOUDY    39  36  89 S6        29.72F FOG
APPLETON       FOG       32  32 100 SW9       29.72F VSB 3/4
OSHKOSH        CLOUDY    32  30  92 SW8       29.74S FOG
FOND DU LAC    CLOUDY    34  30  85 SW8       29.74R FOG
$$

WIZ022-050-052-061800-
EAST CENTRAL WISCONSIN

CITY           SKY/WX    TMP DP  RH WIND       PRES   REMARKS
EPHRAIM        CLOUDY    38  32  79 S14G20    29.73F
WASHINGTON ISL NOT AVBL
STURGEON BAY   CLOUDY    39  32  76 S16G22    29.73F
MANITOWOC      CLOUDY    39  33  79 S12       29.75F
SHEBOYGAN      CLOUDY    40  34  79 S9        29.74F
$$

LMZ563-521-522-541>543-061800-
LAKESHORE

STATION/POSITION TIME  TEMP    WIND        PRES    VSBY  WAVE
                       AIR SEA DIR/SP/G                  HT/PER
                 (UTC) (F)     (DEG/KT/KT) (MB)    (MI)  (FT/S)
SHEBOYGAN LKSHOR 1700   39     160/ 15/ 16 1007.2F
KEWAUNEE LKSHORE 1642   39     180/ 16/ 21 1007.1F
ALGOMA MARINA    1651          210/ 20/ 24   N/A
NORTHPORT PIER   1640   39     150/ 11/ 21 1007.8S
SISTER BAY LKSHO 1653   39     180/ 18/ 23   N/A
CHAMBERS ISLAND  1640   39     150/  8/ 16 1006.8F
MENOMINEE LKSHOR 1642   38     160/ 16/ 20 1006.3F
$$



USA.gov is the U.S. government's official web portal to all federal, state and local government web resources and services.